Location: D�derode
(51.8092°N, 10.1065°E)
Time: 06:56:54
(UTC+00:00)

Meteor 1-4 Rocket - Pass Details

Date: 01 December 2020
Orbit: 449 x 500 km, 81.2° (Epoch: 23 January)

Event Time Altitude Azimuth Distance (km) Brightness Sun altitude
Rises 17:31:12 0° 204° (SSW) 2,518 6.7 -20.5°
Reaches altitude 10° 17:33:20 10° 209° (SSW) 1,635 5.7 -20.8°
Maximum altitude 17:36:49 50° 286° (WNW) 606 3.3 -21.3°
Enters shadow 17:38:28 27° 349° (N) 937 4.0 -21.6°
